Year,Month,Day,Hour,Minute,Value (Times are PST for temperature in C)
2009,08,07,00,00,14.10
2009,08,07,00,01,14.10
2009,08,07,00,02,14.00
2009,08,07,00,03,14.00
2009,08,07,00,04,13.90
2009,08,07,00,05,13.90
2009,08,07,00,06,13.90
2009,08,07,00,07,13.80
2009,08,07,00,08,13.80
2009,08,07,00,09,13.80
2009,08,07,00,10,13.80
2009,08,07,00,11,13.80
2009,08,07,00,12,13.80
2009,08,07,00,13,13.70
2009,08,07,00,14,13.70
2009,08,07,00,15,13.70
2009,08,07,00,16,13.70
2009,08,07,00,17,13.70
2009,08,07,00,18,13.70
2009,08,07,00,19,13.70
2009,08,07,00,20,13.70
2009,08,07,00,21,13.70
2009,08,07,00,22,13.70
2009,08,07,00,23,13.60
2009,08,07,00,24,13.60
2009,08,07,00,25,13.60
2009,08,07,00,26,13.60
2009,08,07,00,27,13.60
2009,08,07,00,28,13.50
2009,08,07,00,29,13.50
2009,08,07,00,30,13.50
2009,08,07,00,31,13.50
2009,08,07,00,32,13.60
2009,08,07,00,33,13.50
2009,08,07,00,34,13.50
2009,08,07,00,35,13.50
2009,08,07,00,36,13.40
2009,08,07,00,37,13.40
2009,08,07,00,38,13.40
2009,08,07,00,39,13.40
2009,08,07,00,40,13.40
2009,08,07,00,41,13.40
2009,08,07,00,42,13.30
2009,08,07,00,43,13.30
2009,08,07,00,44,13.30
2009,08,07,00,45,13.30
2009,08,07,00,46,13.20
2009,08,07,00,47,13.20
2009,08,07,00,48,13.10
2009,08,07,00,49,13.10
2009,08,07,00,50,13.10
2009,08,07,00,51,13.10
2009,08,07,00,52,13.00
2009,08,07,00,53,13.00
2009,08,07,00,54,13.00
2009,08,07,00,55,13.00
2009,08,07,00,56,13.00
2009,08,07,00,57,13.00
2009,08,07,00,58,12.90
2009,08,07,00,59,12.90
2009,08,07,01,00,12.90
2009,08,07,01,01,12.90
2009,08,07,01,02,12.90
2009,08,07,01,03,12.90
2009,08,07,01,04,12.90
2009,08,07,01,05,12.80
2009,08,07,01,06,12.80
2009,08,07,01,07,12.80
2009,08,07,01,08,12.80
2009,08,07,01,09,12.80
2009,08,07,01,10,12.80
2009,08,07,01,11,12.80
2009,08,07,01,12,12.90
2009,08,07,01,13,12.90
2009,08,07,01,14,12.90
2009,08,07,01,15,12.90
2009,08,07,01,16,12.90
2009,08,07,01,17,12.90
2009,08,07,01,18,12.90
2009,08,07,01,19,12.90
2009,08,07,01,20,12.80
2009,08,07,01,21,12.80
2009,08,07,01,22,12.90
2009,08,07,01,23,12.80
2009,08,07,01,24,12.90
2009,08,07,01,25,12.90
2009,08,07,01,26,12.90
2009,08,07,01,27,12.90
2009,08,07,01,28,12.90
2009,08,07,01,29,12.90
2009,08,07,01,30,12.90
2009,08,07,01,31,12.90
2009,08,07,01,32,12.90
2009,08,07,01,33,12.90
2009,08,07,01,34,13.00
2009,08,07,01,35,13.00
2009,08,07,01,36,12.90
2009,08,07,01,37,12.90
2009,08,07,01,38,12.90
2009,08,07,01,39,12.90
2009,08,07,01,40,12.90
2009,08,07,01,41,12.90
2009,08,07,01,42,12.90
2009,08,07,01,43,12.90
2009,08,07,01,44,12.90
2009,08,07,01,45,12.90
2009,08,07,01,46,12.80
2009,08,07,01,47,12.80
2009,08,07,01,48,12.80
2009,08,07,01,49,12.80
2009,08,07,01,50,12.80
2009,08,07,01,51,12.80
2009,08,07,01,52,12.80
2009,08,07,01,53,12.80
2009,08,07,01,54,12.80
2009,08,07,01,55,12.80
2009,08,07,01,56,12.70
2009,08,07,01,57,12.70
2009,08,07,01,58,12.70
2009,08,07,01,59,12.70
2009,08,07,02,00,12.70
2009,08,07,02,01,12.70
2009,08,07,02,02,12.70
2009,08,07,02,03,12.70
2009,08,07,02,04,12.60
2009,08,07,02,05,12.60
2009,08,07,02,06,12.60
2009,08,07,02,07,12.50
2009,08,07,02,08,12.40
2009,08,07,02,09,12.40
2009,08,07,02,10,12.40
2009,08,07,02,11,12.30
2009,08,07,02,12,12.30
2009,08,07,02,13,12.30
2009,08,07,02,14,12.40
2009,08,07,02,15,12.40
2009,08,07,02,16,12.50
2009,08,07,02,17,12.60
2009,08,07,02,18,12.60
2009,08,07,02,19,12.60
2009,08,07,02,20,12.50
2009,08,07,02,21,12.40
2009,08,07,02,22,12.40
2009,08,07,02,23,12.40
2009,08,07,02,24,12.40
2009,08,07,02,25,12.40
2009,08,07,02,26,12.40
2009,08,07,02,27,12.40
2009,08,07,02,28,12.40
2009,08,07,02,29,12.30
2009,08,07,02,30,12.30
2009,08,07,02,31,12.30
2009,08,07,02,32,12.30
2009,08,07,02,33,12.20
2009,08,07,02,34,12.20
2009,08,07,02,35,12.20
2009,08,07,02,36,12.30
2009,08,07,02,37,12.30
2009,08,07,02,38,12.30
2009,08,07,02,39,12.30
2009,08,07,02,40,12.30
2009,08,07,02,41,12.20
2009,08,07,02,42,12.20
2009,08,07,02,43,12.20
2009,08,07,02,44,12.20
2009,08,07,02,45,12.20
2009,08,07,02,46,12.10
2009,08,07,02,47,12.10
2009,08,07,02,48,12.10
2009,08,07,02,49,12.00
2009,08,07,02,50,12.00
2009,08,07,02,51,12.00
2009,08,07,02,52,11.90
2009,08,07,02,53,11.90
2009,08,07,02,54,11.90
2009,08,07,02,55,11.90
2009,08,07,02,56,11.90
2009,08,07,02,57,11.90
2009,08,07,02,58,11.90
2009,08,07,02,59,11.90
2009,08,07,03,00,11.80
2009,08,07,03,01,11.80
2009,08,07,03,02,11.80
2009,08,07,03,03,11.80
2009,08,07,03,04,11.80
2009,08,07,03,05,11.80
2009,08,07,03,06,11.80
2009,08,07,03,07,11.80
2009,08,07,03,08,11.80
2009,08,07,03,09,11.80
2009,08,07,03,10,11.80
2009,08,07,03,11,11.80
2009,08,07,03,12,11.80
2009,08,07,03,13,11.80
2009,08,07,03,14,11.80
2009,08,07,03,15,11.90
2009,08,07,03,16,11.90
2009,08,07,03,17,12.00
2009,08,07,03,18,12.00
2009,08,07,03,19,12.00
2009,08,07,03,20,12.00
2009,08,07,03,21,12.00
2009,08,07,03,22,12.00
2009,08,07,03,23,12.00
2009,08,07,03,24,12.00
2009,08,07,03,25,12.00
2009,08,07,03,26,12.00
2009,08,07,03,27,12.00
2009,08,07,03,28,12.00
2009,08,07,03,29,12.00
2009,08,07,03,30,12.00
2009,08,07,03,31,12.00
2009,08,07,03,32,12.00
2009,08,07,03,33,12.00
2009,08,07,03,34,12.00
2009,08,07,03,35,12.00
2009,08,07,03,36,12.00
2009,08,07,03,37,12.00
2009,08,07,03,38,12.00
2009,08,07,03,39,12.00
2009,08,07,03,40,12.00
2009,08,07,03,41,12.10
2009,08,07,03,42,12.10
2009,08,07,03,43,12.00
2009,08,07,03,44,12.00
2009,08,07,03,45,12.00
2009,08,07,03,46,12.00
2009,08,07,03,47,12.00
2009,08,07,03,48,12.00
2009,08,07,03,49,12.10
2009,08,07,03,50,12.10
2009,08,07,03,51,12.10
2009,08,07,03,52,12.10
2009,08,07,03,53,12.10
2009,08,07,03,54,12.10
2009,08,07,03,55,12.10
2009,08,07,03,56,12.00
2009,08,07,03,57,12.10
2009,08,07,03,58,12.00
2009,08,07,03,59,12.10
2009,08,07,04,00,12.10
2009,08,07,04,01,12.10
2009,08,07,04,02,12.00
2009,08,07,04,03,12.00
2009,08,07,04,04,12.00
2009,08,07,04,05,12.00
2009,08,07,04,06,12.00
2009,08,07,04,07,12.10
2009,08,07,04,08,12.00
2009,08,07,04,09,11.90
2009,08,07,04,10,12.00
2009,08,07,04,11,12.00
2009,08,07,04,12,12.00
2009,08,07,04,13,12.10
2009,08,07,04,14,12.20
2009,08,07,04,15,12.20
2009,08,07,04,16,12.30
2009,08,07,04,17,12.20
2009,08,07,04,18,12.20
2009,08,07,04,19,12.20
2009,08,07,04,20,12.20
2009,08,07,04,21,12.20
2009,08,07,04,22,12.10
2009,08,07,04,23,12.10
2009,08,07,04,24,12.10
2009,08,07,04,25,12.10
2009,08,07,04,26,12.00
2009,08,07,04,27,11.90
2009,08,07,04,28,11.90
2009,08,07,04,29,11.90
2009,08,07,04,30,11.90
2009,08,07,04,31,12.00
2009,08,07,04,32,12.00
2009,08,07,04,33,12.10
2009,08,07,04,34,12.20
2009,08,07,04,35,12.20
2009,08,07,04,36,12.30
2009,08,07,04,37,12.40
2009,08,07,04,38,12.50
2009,08,07,04,39,12.50
2009,08,07,04,40,12.60
2009,08,07,04,41,12.60
2009,08,07,04,42,12.70
2009,08,07,04,43,12.70
2009,08,07,04,44,12.70
2009,08,07,04,45,12.70
2009,08,07,04,46,12.70
2009,08,07,04,47,12.70
2009,08,07,04,48,12.60
2009,08,07,04,49,12.60
2009,08,07,04,50,12.50
2009,08,07,04,51,12.40
2009,08,07,04,52,12.40
2009,08,07,04,53,12.40
2009,08,07,04,54,12.40
2009,08,07,04,55,12.40
2009,08,07,04,56,12.40
2009,08,07,04,57,12.50
2009,08,07,04,58,12.40
2009,08,07,04,59,12.40
2009,08,07,05,00,12.40
2009,08,07,05,01,12.40
2009,08,07,05,02,12.50
2009,08,07,05,03,12.50
2009,08,07,05,04,12.60
2009,08,07,05,05,12.60
2009,08,07,05,06,12.50
2009,08,07,05,07,12.50
2009,08,07,05,08,12.60
2009,08,07,05,09,12.70
2009,08,07,05,10,12.70
2009,08,07,05,11,12.70
2009,08,07,05,12,12.70
2009,08,07,05,13,12.60
2009,08,07,05,14,12.60
2009,08,07,05,15,12.60
2009,08,07,05,16,12.60
2009,08,07,05,17,12.60
2009,08,07,05,18,12.60
2009,08,07,05,19,12.60
2009,08,07,05,20,12.50
2009,08,07,05,21,12.50
2009,08,07,05,22,12.50
2009,08,07,05,23,12.60
2009,08,07,05,24,12.50
2009,08,07,05,25,12.50
2009,08,07,05,26,12.50
2009,08,07,05,27,12.50
2009,08,07,05,28,12.50
2009,08,07,05,29,12.40
2009,08,07,05,30,12.40
2009,08,07,05,31,12.50
2009,08,07,05,32,12.40
2009,08,07,05,33,12.40
2009,08,07,05,34,12.40
2009,08,07,05,35,12.40
2009,08,07,05,36,12.40
2009,08,07,05,37,12.30
2009,08,07,05,38,12.30
2009,08,07,05,39,12.40
2009,08,07,05,40,12.30
2009,08,07,05,41,12.40
2009,08,07,05,42,12.40
2009,08,07,05,43,12.40
2009,08,07,05,44,12.40
2009,08,07,05,45,12.40
2009,08,07,05,46,12.40
2009,08,07,05,47,12.40
2009,08,07,05,48,12.40
2009,08,07,05,49,12.40
2009,08,07,05,50,12.40
2009,08,07,05,51,12.40
2009,08,07,05,52,12.40
2009,08,07,05,53,12.50
2009,08,07,05,54,12.60
2009,08,07,05,55,12.60
2009,08,07,05,56,12.70
2009,08,07,05,57,12.70
2009,08,07,05,58,12.70
2009,08,07,05,59,12.70
2009,08,07,06,00,12.70
2009,08,07,06,01,12.60
2009,08,07,06,02,12.60
2009,08,07,06,03,12.70
2009,08,07,06,04,12.60
2009,08,07,06,05,12.60
2009,08,07,06,06,12.50
2009,08,07,06,07,12.40
2009,08,07,06,08,12.40
2009,08,07,06,09,12.30
2009,08,07,06,10,12.30
2009,08,07,06,11,12.30
2009,08,07,06,12,12.20
2009,08,07,06,13,12.20
2009,08,07,06,14,12.30
2009,08,07,06,15,12.20
2009,08,07,06,16,12.20
2009,08,07,06,17,12.20
2009,08,07,06,18,12.10
2009,08,07,06,19,12.00
2009,08,07,06,20,12.00
2009,08,07,06,21,11.90
2009,08,07,06,22,12.00
2009,08,07,06,23,12.00
2009,08,07,06,24,12.00
2009,08,07,06,25,12.00
2009,08,07,06,26,11.90
2009,08,07,06,27,12.00
2009,08,07,06,28,12.10
2009,08,07,06,29,12.10
2009,08,07,06,30,12.10
2009,08,07,06,31,12.10
2009,08,07,06,32,12.10
2009,08,07,06,33,12.10
2009,08,07,06,34,12.10
2009,08,07,06,35,12.10
2009,08,07,06,36,12.10
2009,08,07,06,37,12.10
2009,08,07,06,38,12.10
2009,08,07,06,39,12.10
2009,08,07,06,40,12.20
2009,08,07,06,41,12.20
2009,08,07,06,42,12.30
2009,08,07,06,43,12.40
2009,08,07,06,44,12.40
2009,08,07,06,45,12.40
2009,08,07,06,46,12.50
2009,08,07,06,47,12.60
2009,08,07,06,48,12.60
2009,08,07,06,49,12.60
2009,08,07,06,50,12.70
2009,08,07,06,51,12.70
2009,08,07,06,52,12.70
2009,08,07,06,53,12.70
2009,08,07,06,54,12.80
2009,08,07,06,55,12.80
2009,08,07,06,56,12.90
2009,08,07,06,57,12.90
2009,08,07,06,58,12.90
2009,08,07,06,59,13.00
2009,08,07,07,00,13.10
2009,08,07,07,01,13.10
2009,08,07,07,02,13.20
2009,08,07,07,03,13.30
2009,08,07,07,04,13.30
2009,08,07,07,05,13.30
2009,08,07,07,06,13.40
2009,08,07,07,07,13.40
2009,08,07,07,08,13.50
2009,08,07,07,09,13.50
2009,08,07,07,10,13.60
2009,08,07,07,11,13.60
2009,08,07,07,12,13.60
2009,08,07,07,13,13.70
2009,08,07,07,14,13.70
2009,08,07,07,15,13.80
2009,08,07,07,16,13.80
2009,08,07,07,17,13.80
2009,08,07,07,18,13.90
2009,08,07,07,19,13.90
2009,08,07,07,20,14.00
2009,08,07,07,21,14.00
2009,08,07,07,22,14.10
2009,08,07,07,23,14.10
2009,08,07,07,24,14.10
2009,08,07,07,25,14.20
2009,08,07,07,26,14.20
2009,08,07,07,27,14.20
2009,08,07,07,28,14.30
2009,08,07,07,29,14.30
2009,08,07,07,30,14.30
2009,08,07,07,31,14.30
2009,08,07,07,32,14.40
2009,08,07,07,33,14.40
2009,08,07,07,34,14.50
2009,08,07,07,35,14.50
2009,08,07,07,36,14.50
2009,08,07,07,37,14.60
2009,08,07,07,38,14.60
2009,08,07,07,39,14.70
2009,08,07,07,40,14.80
2009,08,07,07,41,14.80
2009,08,07,07,42,14.80
2009,08,07,07,43,14.90
2009,08,07,07,44,15.00
2009,08,07,07,45,15.00
2009,08,07,07,46,15.00
2009,08,07,07,47,15.00
2009,08,07,07,48,15.00
2009,08,07,07,49,15.00
2009,08,07,07,50,15.10
2009,08,07,07,51,15.20
2009,08,07,07,52,15.20
2009,08,07,07,53,15.20
2009,08,07,07,54,15.30
2009,08,07,07,55,15.30
2009,08,07,07,56,15.30
2009,08,07,07,57,15.40
2009,08,07,07,58,15.40
2009,08,07,07,59,15.40
2009,08,07,08,00,15.50
2009,08,07,08,01,15.50
2009,08,07,08,02,15.50
2009,08,07,08,03,15.60
2009,08,07,08,04,15.60
2009,08,07,08,05,15.70
2009,08,07,08,06,15.70
2009,08,07,08,07,15.70
2009,08,07,08,08,15.70
2009,08,07,08,09,15.80
2009,08,07,08,10,15.80
2009,08,07,08,11,15.80
2009,08,07,08,12,15.80
2009,08,07,08,13,15.80
2009,08,07,08,14,15.90
2009,08,07,08,15,15.90
2009,08,07,08,16,15.90
2009,08,07,08,17,16.00
2009,08,07,08,18,16.00
2009,08,07,08,19,16.10
2009,08,07,08,20,16.10
2009,08,07,08,21,16.20
2009,08,07,08,22,16.20
2009,08,07,08,23,16.30
2009,08,07,08,24,16.30
2009,08,07,08,25,16.30
2009,08,07,08,26,16.40
2009,08,07,08,27,16.40
2009,08,07,08,28,16.50
2009,08,07,08,29,16.60
2009,08,07,08,30,16.60
2009,08,07,08,31,16.70
2009,08,07,08,32,16.70
2009,08,07,08,33,16.70
2009,08,07,08,34,16.80
2009,08,07,08,35,16.80
2009,08,07,08,36,16.90
2009,08,07,08,37,16.90
2009,08,07,08,38,17.00
2009,08,07,08,39,17.00
2009,08,07,08,40,17.00
2009,08,07,08,41,17.10
2009,08,07,08,42,17.10
2009,08,07,08,43,17.10
2009,08,07,08,44,17.10
2009,08,07,08,45,17.10
2009,08,07,08,46,17.20
2009,08,07,08,47,17.20
2009,08,07,08,48,17.20
2009,08,07,08,49,17.20
2009,08,07,08,50,17.10
2009,08,07,08,51,17.10
2009,08,07,08,52,17.10
2009,08,07,08,53,17.10
2009,08,07,08,54,17.10
2009,08,07,08,55,17.20
2009,08,07,08,56,17.20
2009,08,07,08,57,17.10
2009,08,07,08,58,17.20
2009,08,07,08,59,17.10
2009,08,07,09,00,17.10
2009,08,07,09,01,17.10
2009,08,07,09,02,17.10
2009,08,07,09,03,17.10
2009,08,07,09,04,17.10
2009,08,07,09,05,17.10
2009,08,07,09,06,17.20
2009,08,07,09,07,17.20
2009,08,07,09,08,17.20
2009,08,07,09,09,17.20
2009,08,07,09,10,17.30
2009,08,07,09,11,17.30
2009,08,07,09,12,17.30
2009,08,07,09,13,17.30
2009,08,07,09,14,17.30
2009,08,07,09,15,17.40
2009,08,07,09,16,17.30
2009,08,07,09,17,17.40
2009,08,07,09,18,17.30
2009,08,07,09,19,17.40
2009,08,07,09,20,17.30
2009,08,07,09,21,17.30
2009,08,07,09,22,17.30
2009,08,07,09,23,17.40
2009,08,07,09,24,17.40
2009,08,07,09,25,17.40
2009,08,07,09,26,17.40
2009,08,07,09,27,17.40
2009,08,07,09,28,17.40
2009,08,07,09,29,17.40
2009,08,07,09,30,17.40
2009,08,07,09,31,17.30
2009,08,07,09,32,17.30
2009,08,07,09,33,17.30
2009,08,07,09,34,17.30
2009,08,07,09,35,17.30
2009,08,07,09,36,17.30
2009,08,07,09,37,17.30
2009,08,07,09,38,17.20
2009,08,07,09,39,17.20
2009,08,07,09,40,17.20
2009,08,07,09,41,17.10
2009,08,07,09,42,17.10
2009,08,07,09,43,17.10
2009,08,07,09,44,17.10
2009,08,07,09,45,17.20
2009,08,07,09,46,17.10
2009,08,07,09,47,17.10
2009,08,07,09,48,17.10
2009,08,07,09,49,17.20
2009,08,07,09,50,17.20
2009,08,07,09,51,17.20
2009,08,07,09,52,17.30
2009,08,07,09,53,17.30
2009,08,07,09,54,17.40
2009,08,07,09,55,17.40
2009,08,07,09,56,17.50
2009,08,07,09,57,17.50
2009,08,07,09,58,17.50
2009,08,07,09,59,17.50
2009,08,07,10,00,17.60
2009,08,07,10,01,17.60
2009,08,07,10,02,17.50
2009,08,07,10,03,17.50
2009,08,07,10,04,17.40
2009,08,07,10,05,17.40
2009,08,07,10,06,17.40
2009,08,07,10,07,17.40
2009,08,07,10,08,17.40
2009,08,07,10,09,17.40
2009,08,07,10,10,17.40
2009,08,07,10,11,17.40
2009,08,07,10,12,17.50
2009,08,07,10,13,17.50
2009,08,07,10,14,17.50
2009,08,07,10,15,17.50
2009,08,07,10,16,17.50
2009,08,07,10,17,17.50
2009,08,07,10,18,17.60
2009,08,07,10,19,17.60
2009,08,07,10,20,17.60
2009,08,07,10,21,17.60
2009,08,07,10,22,17.60
2009,08,07,10,23,17.60
2009,08,07,10,24,17.70
2009,08,07,10,25,17.70
2009,08,07,10,26,17.70
2009,08,07,10,27,17.80
2009,08,07,10,28,17.80
2009,08,07,10,29,17.80
2009,08,07,10,30,17.80
2009,08,07,10,31,17.90
2009,08,07,10,32,17.90
2009,08,07,10,33,18.00
2009,08,07,10,34,18.10
2009,08,07,10,35,18.10
2009,08,07,10,36,18.10
2009,08,07,10,37,18.10
2009,08,07,10,38,18.20
2009,08,07,10,39,18.20
2009,08,07,10,40,18.20
2009,08,07,10,41,18.20
2009,08,07,10,42,18.20
2009,08,07,10,43,18.10
2009,08,07,10,44,18.10
2009,08,07,10,45,18.10
2009,08,07,10,46,18.10
2009,08,07,10,47,18.10
2009,08,07,10,48,18.00
2009,08,07,10,49,18.00
2009,08,07,10,50,17.90
2009,08,07,10,51,17.90
2009,08,07,10,52,17.90
2009,08,07,10,53,17.90
2009,08,07,10,54,17.80
2009,08,07,10,55,17.80
2009,08,07,10,56,17.80
2009,08,07,10,57,17.80
2009,08,07,10,58,17.80
2009,08,07,10,59,17.80
2009,08,07,11,00,17.80
2009,08,07,11,01,17.80
2009,08,07,11,02,17.80
2009,08,07,11,03,17.80
2009,08,07,11,04,17.80
2009,08,07,11,05,17.90
2009,08,07,11,06,17.90
2009,08,07,11,07,17.90
2009,08,07,11,08,17.80
2009,08,07,11,09,17.80
2009,08,07,11,10,17.80
2009,08,07,11,11,17.80
2009,08,07,11,12,17.80
2009,08,07,11,13,17.80
2009,08,07,11,14,17.80
2009,08,07,11,15,17.70
2009,08,07,11,16,17.70
2009,08,07,11,17,17.70
2009,08,07,11,18,17.70
2009,08,07,11,19,17.70
2009,08,07,11,20,17.70
2009,08,07,11,21,17.70
2009,08,07,11,22,17.70
2009,08,07,11,23,17.70
2009,08,07,11,24,17.80
2009,08,07,11,25,17.80
2009,08,07,11,26,17.80
2009,08,07,11,27,17.80
2009,08,07,11,28,17.80
2009,08,07,11,29,17.80
2009,08,07,11,30,17.80
2009,08,07,11,31,17.80
2009,08,07,11,32,17.90
2009,08,07,11,33,17.90
2009,08,07,11,34,17.90
2009,08,07,11,35,17.90
2009,08,07,11,36,17.90
2009,08,07,11,37,17.90
2009,08,07,11,38,17.90
2009,08,07,11,39,18.00
2009,08,07,11,40,17.90
2009,08,07,11,41,17.90
2009,08,07,11,42,17.90
2009,08,07,11,43,17.90
2009,08,07,11,44,17.90
2009,08,07,11,45,17.90
2009,08,07,11,46,17.90
2009,08,07,11,47,17.90
2009,08,07,11,48,17.90
2009,08,07,11,49,17.80
2009,08,07,11,50,17.80
2009,08,07,11,51,17.80
2009,08,07,11,52,17.80
2009,08,07,11,53,17.80
2009,08,07,11,54,17.80
2009,08,07,11,55,17.80
2009,08,07,11,56,17.90
2009,08,07,11,57,17.90
2009,08,07,11,58,17.90
2009,08,07,11,59,17.90
2009,08,07,12,00,18.00
2009,08,07,12,01,17.90
2009,08,07,12,02,17.90
2009,08,07,12,03,17.90
2009,08,07,12,04,18.00
2009,08,07,12,05,18.00
2009,08,07,12,06,18.10
2009,08,07,12,07,18.10
2009,08,07,12,08,18.20
2009,08,07,12,09,18.20
2009,08,07,12,10,18.20
2009,08,07,12,11,18.20
2009,08,07,12,12,18.20
2009,08,07,12,13,18.20
2009,08,07,12,14,18.10
2009,08,07,12,15,18.10
2009,08,07,12,16,18.10
2009,08,07,12,17,18.10
2009,08,07,12,18,18.10
2009,08,07,12,19,18.10
2009,08,07,12,20,18.10
2009,08,07,12,21,18.20
2009,08,07,12,22,18.20
2009,08,07,12,23,18.20
2009,08,07,12,24,18.20
2009,08,07,12,25,18.30
2009,08,07,12,26,18.40
2009,08,07,12,27,18.40
2009,08,07,12,28,18.40
2009,08,07,12,29,18.40
2009,08,07,12,30,18.40
2009,08,07,12,31,18.30
2009,08,07,12,32,18.30
2009,08,07,12,33,18.30
2009,08,07,12,34,18.30
2009,08,07,12,35,18.30
2009,08,07,12,36,18.20
2009,08,07,12,37,18.10
2009,08,07,12,38,18.10
2009,08,07,12,39,18.00
2009,08,07,12,40,18.10
2009,08,07,12,41,18.10
2009,08,07,12,42,18.20
2009,08,07,12,43,18.30
2009,08,07,12,44,18.40
2009,08,07,12,45,18.50
2009,08,07,12,46,18.60
2009,08,07,12,47,18.50
2009,08,07,12,48,18.50
2009,08,07,12,49,18.50
2009,08,07,12,50,18.60
2009,08,07,12,51,18.70
2009,08,07,12,52,18.70
2009,08,07,12,53,18.70
2009,08,07,12,54,18.70
2009,08,07,12,55,18.60
2009,08,07,12,56,18.60
2009,08,07,12,57,18.60
2009,08,07,12,58,18.50
2009,08,07,12,59,18.50
2009,08,07,13,00,18.60
2009,08,07,13,01,18.60
2009,08,07,13,02,18.60
2009,08,07,13,03,18.50
2009,08,07,13,04,18.50
2009,08,07,13,05,18.40
2009,08,07,13,06,18.40
2009,08,07,13,07,18.30
2009,08,07,13,08,18.30
2009,08,07,13,09,18.30
2009,08,07,13,10,18.30
2009,08,07,13,11,18.30
2009,08,07,13,12,18.30
2009,08,07,13,13,18.40
2009,08,07,13,14,18.40
2009,08,07,13,15,18.40
2009,08,07,13,16,18.50
2009,08,07,13,17,18.60
2009,08,07,13,18,18.80
2009,08,07,13,19,18.90
2009,08,07,13,20,19.00
2009,08,07,13,21,18.90
2009,08,07,13,22,18.90
2009,08,07,13,23,18.80
2009,08,07,13,24,18.80
2009,08,07,13,25,18.80
2009,08,07,13,26,18.90
2009,08,07,13,27,19.00
2009,08,07,13,28,19.00
2009,08,07,13,29,19.00
2009,08,07,13,30,19.00
2009,08,07,13,31,19.00
2009,08,07,13,32,19.00
2009,08,07,13,33,19.00
2009,08,07,13,34,19.10
2009,08,07,13,35,19.00
2009,08,07,13,36,18.90
2009,08,07,13,37,18.90
2009,08,07,13,38,18.90
2009,08,07,13,39,18.90
2009,08,07,13,40,18.70
2009,08,07,13,41,18.60
2009,08,07,13,42,18.60
2009,08,07,13,43,18.60
2009,08,07,13,44,18.70
2009,08,07,13,45,18.80
2009,08,07,13,46,18.80
2009,08,07,13,47,18.80
2009,08,07,13,48,18.80
2009,08,07,13,49,18.70
2009,08,07,13,50,18.70
2009,08,07,13,51,18.60
2009,08,07,13,52,18.60
2009,08,07,13,53,18.60
2009,08,07,13,54,18.70
2009,08,07,13,55,18.70
2009,08,07,13,56,18.60
2009,08,07,13,57,18.50
2009,08,07,13,58,18.50
2009,08,07,13,59,18.60
2009,08,07,14,00,18.60
2009,08,07,14,01,18.50
2009,08,07,14,02,18.40
2009,08,07,14,03,18.50
2009,08,07,14,04,18.50
2009,08,07,14,05,18.60
2009,08,07,14,06,18.60
2009,08,07,14,07,18.60
2009,08,07,14,08,18.60
2009,08,07,14,09,18.70
2009,08,07,14,10,18.70
2009,08,07,14,11,18.70
2009,08,07,14,12,18.70
2009,08,07,14,13,18.70
2009,08,07,14,14,18.60
2009,08,07,14,15,18.40
2009,08,07,14,16,18.40
2009,08,07,14,17,18.40
2009,08,07,14,18,18.40
2009,08,07,14,19,18.30
2009,08,07,14,20,18.30
2009,08,07,14,21,18.30
2009,08,07,14,22,18.30
2009,08,07,14,23,18.30
2009,08,07,14,24,18.30
2009,08,07,14,25,18.30
2009,08,07,14,26,18.40
2009,08,07,14,27,18.50
2009,08,07,14,28,18.40
2009,08,07,14,29,18.50
2009,08,07,14,30,18.60
2009,08,07,14,31,18.70
2009,08,07,14,32,18.80
2009,08,07,14,33,18.90
2009,08,07,14,34,18.90
2009,08,07,14,35,18.90
2009,08,07,14,36,18.90
2009,08,07,14,37,18.90
2009,08,07,14,38,18.80
2009,08,07,14,39,18.70
2009,08,07,14,40,18.70
2009,08,07,14,41,18.60
2009,08,07,14,42,18.60
2009,08,07,14,43,18.70
2009,08,07,14,44,18.70
2009,08,07,14,45,18.80
2009,08,07,14,46,18.80
2009,08,07,14,47,18.90
2009,08,07,14,48,18.90
2009,08,07,14,49,18.70
2009,08,07,14,50,18.60
2009,08,07,14,51,18.60
2009,08,07,14,52,18.60
2009,08,07,14,53,18.50
2009,08,07,14,54,18.40
2009,08,07,14,55,18.50
2009,08,07,14,56,18.40
2009,08,07,14,57,18.30
2009,08,07,14,58,18.40
2009,08,07,14,59,18.40
2009,08,07,15,00,18.40
2009,08,07,15,01,18.40
2009,08,07,15,02,18.40
2009,08,07,15,03,18.40
2009,08,07,15,04,18.40
2009,08,07,15,05,18.50
2009,08,07,15,06,18.60
2009,08,07,15,07,18.60
2009,08,07,15,08,18.60
2009,08,07,15,09,18.50
2009,08,07,15,10,18.40
2009,08,07,15,11,18.40
2009,08,07,15,12,18.30
2009,08,07,15,13,18.30
2009,08,07,15,14,18.30
2009,08,07,15,15,18.20
2009,08,07,15,16,18.30
2009,08,07,15,17,18.50
2009,08,07,15,18,18.60
2009,08,07,15,19,18.60
2009,08,07,15,20,18.60
2009,08,07,15,21,18.70
2009,08,07,15,22,18.80
2009,08,07,15,23,19.00
2009,08,07,15,24,18.90
2009,08,07,15,25,18.90
2009,08,07,15,26,18.80
2009,08,07,15,27,18.80
2009,08,07,15,28,18.70
2009,08,07,15,29,18.70
2009,08,07,15,30,18.70
2009,08,07,15,31,18.70
2009,08,07,15,32,18.70
2009,08,07,15,33,18.70
2009,08,07,15,34,18.60
2009,08,07,15,35,18.60
2009,08,07,15,36,18.50
2009,08,07,15,37,18.50
2009,08,07,15,38,18.50
2009,08,07,15,39,18.50
2009,08,07,15,40,18.70
2009,08,07,15,41,18.80
2009,08,07,15,42,18.90
2009,08,07,15,43,18.80
2009,08,07,15,44,18.70
2009,08,07,15,45,18.60
2009,08,07,15,46,18.60
2009,08,07,15,47,18.70
2009,08,07,15,48,18.70
2009,08,07,15,49,18.60
2009,08,07,15,50,18.50
2009,08,07,15,51,18.50
2009,08,07,15,52,18.40
2009,08,07,15,53,18.50
2009,08,07,15,54,18.50
2009,08,07,15,55,18.50
2009,08,07,15,56,18.40
2009,08,07,15,57,18.40
2009,08,07,15,58,18.50
2009,08,07,15,59,18.60
2009,08,07,16,00,18.60
2009,08,07,16,01,18.70
2009,08,07,16,02,18.60
2009,08,07,16,03,18.60
2009,08,07,16,04,18.60
2009,08,07,16,05,18.50
2009,08,07,16,06,18.40
2009,08,07,16,07,18.50
2009,08,07,16,08,18.50
2009,08,07,16,09,18.50
2009,08,07,16,10,18.60
2009,08,07,16,11,18.50
2009,08,07,16,12,18.50
2009,08,07,16,13,18.50
2009,08,07,16,14,18.60
2009,08,07,16,15,18.60
2009,08,07,16,16,18.60
2009,08,07,16,17,18.50
2009,08,07,16,18,18.50
2009,08,07,16,19,18.70
2009,08,07,16,20,18.80
2009,08,07,16,21,18.80
2009,08,07,16,22,18.80
2009,08,07,16,23,18.90
2009,08,07,16,24,19.00
2009,08,07,16,25,19.10
2009,08,07,16,26,19.10
2009,08,07,16,27,19.00
2009,08,07,16,28,18.90
2009,08,07,16,29,18.80
2009,08,07,16,30,18.80
2009,08,07,16,31,18.70
2009,08,07,16,32,18.70
2009,08,07,16,33,18.70
2009,08,07,16,34,18.80
2009,08,07,16,35,18.80
2009,08,07,16,36,18.90
2009,08,07,16,37,19.00
2009,08,07,16,38,19.00
2009,08,07,16,39,19.10
2009,08,07,16,40,19.10
2009,08,07,16,41,19.10
2009,08,07,16,42,19.10
2009,08,07,16,43,19.10
2009,08,07,16,44,19.10
2009,08,07,16,45,19.00
2009,08,07,16,46,19.00
2009,08,07,16,47,19.00
2009,08,07,16,48,18.90
2009,08,07,16,49,19.00
2009,08,07,16,50,19.00
2009,08,07,16,51,18.90
2009,08,07,16,52,18.90
2009,08,07,16,53,18.90
2009,08,07,16,54,18.90
2009,08,07,16,55,19.00
2009,08,07,16,56,19.10
2009,08,07,16,57,19.20
2009,08,07,16,58,19.20
2009,08,07,16,59,19.20
2009,08,07,17,00,19.10
2009,08,07,17,01,19.20
2009,08,07,17,02,19.20
2009,08,07,17,03,19.20
2009,08,07,17,04,19.30
2009,08,07,17,05,19.30
2009,08,07,17,06,19.30
2009,08,07,17,07,19.30
2009,08,07,17,08,19.30
2009,08,07,17,09,19.30
2009,08,07,17,10,19.30
2009,08,07,17,11,19.30
2009,08,07,17,12,19.20
2009,08,07,17,13,19.10
2009,08,07,17,14,19.00
2009,08,07,17,15,19.00
2009,08,07,17,16,18.90
2009,08,07,17,17,18.80
2009,08,07,17,18,18.70
2009,08,07,17,19,18.70